Location: Scultetus-Sternwarte G�rlitz
(51.1356°N, 14.9514°E)
Time: 23:20:07
(UTC+01:00)

ISS - Visible Passes

Search period start: 22 March 2017 00:00
Search period end: 01 April 2017 01:00
Orbit: 399 x 409 km, 51.6° (Epoch: 23 March)

Date Brightness Start Highest point End Pass type
(mag) Time Alt. Az. Time Alt. Az. Time Alt. Az.
22 Mar -1.8 03:46:56 20° SSE 03:46:56 20° SSE 03:48:09 10° SE visible
23 Mar -1.6 04:30:04 13° SSW 04:30:04 13° SSW 04:30:47 10° S visible
28 Mar -2.5 20:59:43 10° SSW 21:01:53 23° SSE 21:01:53 23° SSE visible
29 Mar -2.0 20:08:08 10° S 20:10:16 16° SE 20:12:20 10° E visible
29 Mar -2.6 21:43:02 10° WSW 21:45:02 33° SW 21:45:02 33° SW visible
30 Mar -3.4 20:50:49 10° SW 20:53:55 42° SSE 20:55:15 27° E visible
30 Mar -1.2 22:27:00 10° W 22:27:54 17° W 22:27:54 17° W visible
31 Mar -4.0 21:34:35 10° WSW 21:37:51 85° S 21:37:56 83° SE visible
